TimeEST,TemperatureF,Dew PointF,Humidity,Sea Level PressureIn,VisibilityMPH,Wind Direction,Wind SpeedMPH,Gust SpeedMPH,PrecipitationIn,Events,Conditions,WindDirDegrees,DateUTC
12:15 AM,66.2,-9999,N/A,30.07,1.5,North,5.8,-,0.00,,Scattered Clouds,360,2014-02-24 05:15:00
12:35 AM,66.2,-9999,N/A,30.06,10.0,Calm,Calm,-,0.00,,Partly Cloudy,0,2014-02-24 05:35:00
12:55 AM,64.4,-9999,N/A,30.06,8.0,Calm,Calm,-,0.00,,Clear,0,2014-02-24 05:55:00
1:15 AM,64.4,-9999,N/A,30.06,6.0,Calm,Calm,-,0.00,,Clear,0,2014-02-24 06:15:00
1:35 AM,64.4,-9999,N/A,30.06,5.0,Calm,Calm,-,0.00,,Clear,0,2014-02-24 06:35:00
1:55 AM,64.4,-9999,N/A,30.06,6.0,Calm,Calm,-,0.00,,Clear,0,2014-02-24 06:55:00
2:15 AM,64.4,-9999,N/A,30.05,4.0,Calm,Calm,-,0.00,,Clear,0,2014-02-24 07:15:00
2:35 AM,64.4,-9999,N/A,30.04,1.0,Calm,Calm,-,0.00,,Clear,0,2014-02-24 07:35:00
2:55 AM,62.6,-9999,N/A,30.03,1.2,Calm,Calm,-,0.00,,Clear,0,2014-02-24 07:55:00
3:15 AM,62.6,-9999,N/A,30.03,1.2,Calm,Calm,-,0.00,,Clear,0,2014-02-24 08:15:00
3:35 AM,60.8,-9999,N/A,30.03,0.5,Calm,Calm,-,0.00,,Unknown,0,2014-02-24 08:35:00
3:55 AM,60.8,-9999,N/A,30.02,0.2,Calm,Calm,-,0.00,,Unknown,0,2014-02-24 08:55:00
4:15 AM,60.8,-9999,N/A,30.02,0.2,Calm,Calm,-,0.00,,Unknown,0,2014-02-24 09:15:00
4:35 AM,59.0,-9999,N/A,30.01,0.2,Calm,Calm,-,0.00,,Unknown,0,2014-02-24 09:35:00
4:55 AM,57.2,-9999,N/A,30.02,0.2,Calm,Calm,-,0.00,,Mostly Cloudy,0,2014-02-24 09:55:00
5:15 AM,60.8,-9999,N/A,30.02,0.2,Calm,Calm,-,0.00,,Overcast,0,2014-02-24 10:15:00
5:35 AM,62.6,-9999,N/A,30.03,0.2,Calm,Calm,-,0.00,,Overcast,0,2014-02-24 10:35:00
5:55 AM,62.6,-9999,N/A,30.03,0.8,Calm,Calm,-,0.00,,Overcast,0,2014-02-24 10:55:00
6:15 AM,62.6,-9999,N/A,30.02,0.8,SSW,4.6,-,0.00,,Overcast,200,2014-02-24 11:15:00
6:35 AM,62.6,-9999,N/A,30.03,0.2,SW,3.5,-,0.00,,Overcast,230,2014-02-24 11:35:00
6:55 AM,64.4,-9999,N/A,30.03,0.2,Calm,Calm,-,0.00,,Overcast,0,2014-02-24 11:55:00
7:15 AM,64.4,-9999,N/A,30.02,0.2,SSW,4.6,-,0.00,,Overcast,200,2014-02-24 12:15:00
7:35 AM,64.4,-9999,N/A,30.03,0.8,SSW,4.6,-,0.01,,Overcast,200,2014-02-24 12:35:00
7:55 AM,66.2,-9999,N/A,30.04,1.5,Calm,Calm,-,0.01,,Overcast,0,2014-02-24 12:55:00
8:15 AM,66.2,-9999,N/A,30.05,2.0,Calm,Calm,-,0.00,,Overcast,0,2014-02-24 13:15:00
8:35 AM,66.2,-9999,N/A,30.05,3.0,Calm,Calm,-,0.00,,Overcast,0,2014-02-24 13:35:00
8:55 AM,68.0,-9999,N/A,30.06,6.0,Calm,Calm,-,0.00,,Overcast,0,2014-02-24 13:55:00
9:15 AM,69.8,-9999,N/A,30.06,10.0,Calm,Calm,-,0.00,,Mostly Cloudy,0,2014-02-24 14:15:00
9:35 AM,71.6,-9999,N/A,30.07,10.0,Calm,Calm,-,0.00,,Partly Cloudy,0,2014-02-24 14:35:00
9:55 AM,75.2,75.2,100,30.07,10.0,Calm,Calm,-,0.00,,Partly Cloudy,0,2014-02-24 14:55:00
10:15 AM,75.2,75.2,100,30.07,10.0,Calm,Calm,-,0.00,,Partly Cloudy,0,2014-02-24 15:15:00
10:35 AM,78.8,73.4,83,30.08,10.0,WSW,3.5,-,0.00,,Clear,240,2014-02-24 15:35:00
10:55 AM,80.6,71.6,74,30.07,10.0,Calm,Calm,-,0.00,,Clear,0,2014-02-24 15:55:00
11:15 AM,82.4,68.0,62,30.07,10.0,Calm,Calm,-,0.00,,Clear,0,2014-02-24 16:15:00
11:35 AM,84.2,64.4,51,30.07,10.0,Calm,Calm,-,0.00,,Clear,0,2014-02-24 16:35:00
11:55 AM,86.0,66.2,51,30.06,10.0,WSW,8.1,-,0.00,,Clear,250,2014-02-24 16:55:00
12:15 PM,86.0,66.2,51,30.06,10.0,West,6.9,-,0.00,,Clear,260,2014-02-24 17:15:00
12:35 PM,86.0,66.2,51,30.05,9.0,WNW,8.1,-,0.00,,Clear,290,2014-02-24 17:35:00
12:55 PM,82.4,68.0,62,30.04,10.0,NW,6.9,-,0.00,,Mostly Cloudy,310,2014-02-24 17:55:00
1:15 PM,86.0,66.2,51,30.03,10.0,WNW,9.2,-,0.00,,Partly Cloudy,290,2014-02-24 18:15:00
1:35 PM,86.0,64.4,48,30.02,10.0,West,8.1,-,0.00,,Scattered Clouds,270,2014-02-24 18:35:00
1:55 PM,87.8,66.2,49,30.01,10.0,WNW,10.4,-,0.00,,Mostly Cloudy,290,2014-02-24 18:55:00
2:15 PM,87.8,68.0,52,30.01,10.0,NW,10.4,17.3,0.00,,Mostly Cloudy,320,2014-02-24 19:15:00
2:35 PM,86.0,66.2,51,30.01,10.0,West,11.5,16.1,0.00,,Scattered Clouds,270,2014-02-24 19:35:00
2:55 PM,84.2,66.2,55,30.00,10.0,WNW,9.2,-,0.00,,Clear,290,2014-02-24 19:55:00
3:15 PM,86.0,64.4,48,30.00,10.0,WNW,9.2,-,0.00,,Clear,300,2014-02-24 20:15:00
3:35 PM,82.4,64.4,54,30.00,10.0,West,10.4,-,0.00,,Partly Cloudy,270,2014-02-24 20:35:00
3:55 PM,84.2,64.4,51,30.00,10.0,NW,6.9,-,0.00,,Scattered Clouds,320,2014-02-24 20:55:00
4:15 PM,84.2,64.4,51,30.00,10.0,NW,6.9,-,0.00,,Partly Cloudy,310,2014-02-24 21:15:00
4:35 PM,84.2,64.4,51,30.00,10.0,West,8.1,-,0.00,,Clear,280,2014-02-24 21:35:00
4:55 PM,84.2,64.4,51,30.00,10.0,West,10.4,-,0.00,,Clear,270,2014-02-24 21:55:00
5:15 PM,82.4,62.6,51,30.00,10.0,WNW,8.1,-,0.00,,Clear,290,2014-02-24 22:15:00
5:35 PM,82.4,62.6,51,30.01,10.0,WNW,9.2,-,0.00,,Clear,300,2014-02-24 22:35:00
5:55 PM,82.4,64.4,54,30.01,10.0,WNW,6.9,-,0.00,,Clear,290,2014-02-24 22:55:00
6:15 PM,80.6,66.2,61,30.03,10.0,West,6.9,-,0.00,,Clear,280,2014-02-24 23:15:00
6:35 PM,78.8,69.8,74,30.03,10.0,WNW,8.1,-,0.00,,Clear,290,2014-02-24 23:35:00
6:55 PM,75.2,69.8,83,30.03,10.0,Calm,Calm,-,0.00,,Clear,0,2014-02-24 23:55:00
7:15 PM,75.2,68.0,78,30.04,10.0,WNW,4.6,-,0.00,,Clear,290,2014-02-25 00:15:00
7:35 PM,73.4,66.2,78,30.04,10.0,WNW,3.5,-,0.00,,Clear,290,2014-02-25 00:35:00
7:55 PM,71.6,66.2,83,30.05,10.0,WNW,3.5,-,0.00,,Clear,300,2014-02-25 00:55:00
8:15 PM,71.6,68.0,88,30.05,10.0,Calm,Calm,-,0.00,,Clear,0,2014-02-25 01:15:00
8:55 PM,69.8,68.0,94,30.07,10.0,WNW,4.6,-,0.00,,Clear,290,2014-02-25 01:55:00
9:15 PM,69.8,68.0,94,30.07,10.0,WNW,3.5,-,0.00,,Clear,300,2014-02-25 02:15:00
9:35 PM,69.8,69.8,100,30.07,10.0,WNW,4.6,-,0.00,,Clear,300,2014-02-25 02:35:00
9:55 PM,69.8,69.8,100,30.07,10.0,Calm,Calm,-,0.00,,Scattered Clouds,0,2014-02-25 02:55:00
10:15 PM,69.8,69.8,100,30.07,10.0,WNW,4.6,-,0.00,,Partly Cloudy,290,2014-02-25 03:15:00
10:35 PM,69.8,69.8,100,30.08,10.0,Calm,Calm,-,0.00,,Mostly Cloudy,0,2014-02-25 03:35:00
10:55 PM,69.8,69.8,100,30.08,10.0,Calm,Calm,-,0.00,,Scattered Clouds,0,2014-02-25 03:55:00
11:15 PM,69.8,69.8,100,30.08,10.0,WNW,3.5,-,0.00,,Clear,300,2014-02-25 04:15:00
11:35 PM,69.8,69.8,100,30.08,10.0,Calm,Calm,-,0.00,,Partly Cloudy,0,2014-02-25 04:35:00
11:55 PM,66.2,66.2,100,30.08,10.0,North,4.6,-,0.00,,Mostly Cloudy,10,2014-02-25 04:55:00